This is the latest recevied weather packets stored in our database for station/object W3TMB. If no packets are shown the sender has not sent any weather packets the latest 10 day(s).
| Time | Temp. | Humidity | Pressure | Rain* | Wind** | Luminosity | Snow |
|---|---|---|---|---|---|---|---|
| 1777510096 | 11.11° C | 99% | 1004.7 hPa | 0 mm | - | 0 W/m² | - |
| 1777509794 | 11.11° C | 99% | 1004.6 hPa | 0 mm | - | 0 W/m² | - |
| 1777509489 | 11.11° C | 99% | 1004.7 hPa | 0 mm | - | 0 W/m² | - |
| 1777509187 | 11.11° C | 99% | 1004.4 hPa | 0 mm | - | 0 W/m² | - |
| 1777508884 | 11.11° C | 99% | 1004.6 hPa | 0 mm | - | 0 W/m² | - |
| 1777508580 | 11.11° C | 99% | 1004.3 hPa | 0 mm | - | 0 W/m² | - |
| 1777508277 | 11.11° C | 99% | 1004.7 hPa | 0 mm | - | 0 W/m² | - |
| 1777507975 | 11.11° C | 99% | 1004.7 hPa | 3.05 mm | - | 0 W/m² | - |
| 1777507671 | 11.11° C | 99% | 1004.9 hPa | 4.32 mm | - | 0 W/m² | - |
| 1777507368 | 11.67° C | 99% | 1004.9 hPa | 4.32 mm | - | 0 W/m² | - |
| 1777507066 | 11.67° C | 99% | 1005.2 hPa | 6.1 mm | - | 0 W/m² | - |
| 1777506763 | 11.67° C | 99% | 1005 hPa | 7.87 mm | - | 0 W/m² | - |
| 1777506459 | 11.67° C | 99% | 1005.1 hPa | 4.32 mm | - | 0 W/m² | - |
| 1777506155 | 11.67° C | 99% | 1004.9 hPa | 1.78 mm | - | 0 W/m² | - |
| 1777505851 | 11.67° C | 99% | 1004.6 hPa | 1.78 mm | - | 0 W/m² | - |
| 1777505548 | 11.67° C | 99% | 1004.2 hPa | 1.78 mm | - | 1 W/m² | - |
| 1777505244 | 11.67° C | 99% | 1004.2 hPa | 3.05 mm | - | 4 W/m² | - |
| 1777504941 | 11.67° C | 98% | 1004.3 hPa | 3.05 mm | - | 4 W/m² | - |
| 1777504638 | 11.67° C | 98% | 1004.3 hPa | 1.78 mm | - | 3 W/m² | - |
| 1777504335 | 11.67° C | 99% | 1004.2 hPa | 0 mm | - | 5 W/m² | - |
| 1777504029 | 11.67° C | 99% | 1004.5 hPa | 1.27 mm | - | 5 W/m² | - |
| 1777503727 | 11.67° C | 99% | 1004.3 hPa | 0 mm | - | 9 W/m² | - |
| 1777503423 | 11.67° C | 99% | 1004.4 hPa | 0 mm | - | 11 W/m² | - |
| 1777503119 | 11.67° C | 99% | 1004.4 hPa | 0 mm | - | 10 W/m² | - |
| 1777502817 | 11.67° C | 99% | 1004.2 hPa | 0 mm | - | 11 W/m² | - |
* Rain latest hour (hover to see other rain measurements)
** Current wind speed in m/s (hover to see current wind gust speed)